Location: Overspoor
(51.4747°N, 5.6641°E)
Time: 07:20:20
(UTC+02:00)

Tiangong 2 - Visible Passes

Search period start: 22 August 2018 00:00
Search period end: 01 September 2018 00:00
Orbit: 384 x 395 km, 42.8° (Epoch: 21 August)

Date Brightness Start Highest point End Pass type
(mag) Time Alt. Az. Time Alt. Az. Time Alt. Az.
22 Aug 3.0 05:49:10 10° SW 05:51:23 17° S 05:53:37 10° SE visible
23 Aug 3.1 04:53:40 16° S 04:53:42 16° S 04:55:47 10° SE visible
24 Aug 3.0 05:30:48 14° SW 05:32:11 17° S 05:34:24 10° SE visible
25 Aug 3.3 04:35:41 15° SSE 04:35:41 15° SSE 04:36:42 10° SE visible
26 Aug 3.0 05:13:00 16° S 05:13:00 16° S 05:14:58 10° SSE visible
